Location: Altmatt
(47.1333°N, 8.7000°E)
Time: 19:15:31
(UTC+00:00)

Geosat - Pass Details

Date: 13 July 2020
Orbit: 763 x 766 km, 108.0° (Epoch: 11 August)

Event Time Altitude Azimuth Distance (km) Brightness Sun altitude
Exits shadow 20:15:16 - 155° (SSE) 2,426 6.0 -8.3°
Reaches altitude 10° 20:15:36 10° 156° (SSE) 2,295 5.9 -8.4°
Maximum altitude 20:20:36 77° 242° (WSW) 790 4.1 -9.0°
Drops below altitude 10° 20:25:39 10° 329° (NNW) 2,313 8.0 -9.5°
Sets 20:27:57 0° 331° (NNW) 3,244 9.1 -9.8°
